Home > Weather > Granby > Past weeks

Flag for Canada Weather for the Past 2 Weeks in Granby, Quebec, Canada

Now
26 °F

Chilly.


Feels Like: 18 °F
Forecast: 19 / 24 °F
Wind: 8 mph from Northeast

Location: Frelighsburg

Current Time: Feb 8, 2016 at 3:10:00 PM

Latest Report: Feb 8, 2016 at 2:00 PM


Visibility: N/A

Pressure: 29.84 "Hg

Humidity: 27%

Dew point: -4 °F

Location of GranbyLocation

Historic Weather in Granby — Graph

°F

Granby Temperature Yesterday

Maximum temperature yesterday: 33 °F (at 12:00 AM)
Minimum temperature yesterday: 22 °F (at 9:00 PM)
Average temperature yesterday: 27 °F

High & Low Weather Summary for the Past Weeks

 TemperatureHumidityPressure
High50 °F (Feb 4, 12:00 AM)99% (Jan 29, 7:00 PM)30.40 "Hg (Jan 29, 7:00 PM)
Low15 °F (Jan 27, 10:00 PM)27% (Feb 8, 2:00 PM)29.41 "Hg (Feb 1, 5:00 AM)
Average30 °F73%29.93 "Hg
* Reported Jan 24 2:00 PM — Feb 8 2:00 PM, Granby, Weather by CustomWeather, © 2016

Note: Actual official high and low records may vary slightly from our data, if they occured in-between our weather recording intervals... More about our weather records

Advertising

Granby Weather History for the Previous 24 Hours

 ConditionsComfort  
Time TempWeatherWind HumidityBarometerVisibility
2:00 PM
Mon, Feb 8
26 °FChilly.8 mph27%29.84 "HgN/A
1:00 PM26 °FChilly.6 mph28%29.86 "HgN/A
12:00 PM26 °FChilly.5 mph32%29.89 "HgN/A
11:00 AM25 °FCold.5 mph42%29.91 "HgN/A
10:00 AM23 °FCold.7 mph47%29.93 "HgN/A
9:00 AM22 °FCold.8 mph55%29.94 "HgN/A
8:00 AM21 °FCold.1 mph70%29.93 "HgN/A
7:00 AM22 °FCold.2 mph74%29.93 "HgN/A
6:00 AM23 °FCold.3 mph72%29.94 "HgN/A
5:00 AM19 °FCold.1 mph79%29.96 "HgN/A
4:00 AM19 °FCold.1 mph79%29.97 "HgN/A
3:00 AM19 °FCold.2 mph76%30.00 "HgN/A
2:00 AM25 °FChilly.3 mph66%30.01 "HgN/A
1:00 AM25 °FChilly.5 mph65%30.03 "HgN/A
12:00 AM25 °FCold.5 mph68%30.06 "HgN/A
11:00 PM
Sun, Feb 7
24 °FCold.1 mph67%30.09 "HgN/A
10:00 PM25 °FCold.3 mph65%30.10 "HgN/A
9:00 PM22 °FCold.1 mph70%30.12 "HgN/A
8:00 PM24 °FCold.2 mph66%30.12 "HgN/A
7:00 PM24 °FCold.3 mph65%30.14 "HgN/A
6:00 PM25 °FCold.6 mph63%30.14 "HgN/A
5:00 PM28 °FChilly.6 mph56%30.12 "HgN/A
4:00 PM27 °FChilly.5 mph58%30.14 "HgN/A
3:00 PM26 °FChilly.3 mph57%30.17 "HgN/A
Weather by CustomWeather, © 2016

See weather overviewHow to use our weather pages